FBT98CS LFKJ-LFMD

Flight info

Callsign FBT98CS
Flight time 0h 31m
Altitude 26000
Route LONSU
Aircraft BBJ2/M-SDE2E3FGHIRWXY/LB1

Departure

Time 2026-04-21 19:22
Airport Ajaccio Napoléon Bonaparte airport (LFKJ)

Arrival

Time 2026-04-21 19:54
Airport Cannes Mandelieu Airport (LFMD)
Time Latitude Longitude Altitude Speed Heading
2026-04-21 19:05 41.92081 8.79637 24 ft 0 kts 315°
2026-04-21 19:15 41.92080 8.79639 24 ft 2 kts 316°
2026-04-21 19:15 41.92068 8.79655 30 ft 2 kts 314°
2026-04-21 19:16 41.92057 8.79671 29 ft 2 kts 314°
2026-04-21 19:16 41.92045 8.79687 27 ft 2 kts 317°
2026-04-21 19:16 41.92031 8.79688 27 ft 2 kts 22°
2026-04-21 19:16 41.92026 8.79684 27 ft 0 kts 25°
2026-04-21 19:18 41.92026 8.79685 27 ft 1 kts 25°
2026-04-21 19:19 41.92073 8.79714 28 ft 15 kts 25°
2026-04-21 19:19 41.92195 8.79788 24 ft 22 kts 22°
2026-04-21 19:19 41.92330 8.79873 27 ft 21 kts 27°
2026-04-21 19:19 41.92459 8.79956 25 ft 21 kts 25°
2026-04-21 19:20 41.92587 8.80035 25 ft 20 kts 24°
2026-04-21 19:20 41.92711 8.80111 25 ft 19 kts 25°
2026-04-21 19:20 41.92818 8.80213 25 ft 19 kts 45°
2026-04-21 19:20 41.92907 8.80332 25 ft 18 kts 44°
2026-04-21 19:21 41.92962 8.80421 27 ft 6 kts 70°
2026-04-21 19:21 41.92964 8.80472 26 ft 5 kts 97°
2026-04-21 19:21 41.92957 8.80517 27 ft 5 kts 102°
2026-04-21 19:21 41.92949 8.80560 28 ft 5 kts 112°
2026-04-21 19:22 41.92915 8.80567 28 ft 7 kts 197°
2026-04-21 19:22 41.92649 8.80403 27 ft 95 kts 205°
2026-04-21 19:22 41.91791 8.79878 97 ft 166 kts 204°
2026-04-21 19:22 41.90760 8.79227 1187 ft 151 kts 209°
2026-04-21 19:23 41.89927 8.78507 2471 ft 136 kts 214°
2026-04-21 19:23 41.89072 8.77692 3032 ft 173 kts 217°
2026-04-21 19:23 41.87949 8.76629 3211 ft 225 kts 215°
2026-04-21 19:23 41.86579 8.75375 3274 ft 242 kts 214°
2026-04-21 19:24 41.85140 8.74076 3282 ft 258 kts 214°
2026-04-21 19:24 41.83615 8.72711 3128 ft 267 kts 214°
2026-04-21 19:24 41.82063 8.71331 3024 ft 265 kts 214°
2026-04-21 19:24 41.80558 8.69980 3011 ft 262 kts 214°
2026-04-21 19:25 41.79049 8.68617 2984 ft 260 kts 214°
2026-04-21 19:25 41.77555 8.67268 2992 ft 258 kts 214°
2026-04-21 19:25 41.76051 8.65926 3024 ft 261 kts 214°
2026-04-21 19:25 41.74532 8.64561 3027 ft 265 kts 215°
2026-04-21 19:26 41.73015 8.63154 3021 ft 263 kts 220°
2026-04-21 19:26 41.71826 8.61303 2985 ft 264 kts 245°
2026-04-21 19:26 41.71575 8.58935 3600 ft 265 kts 283°
2026-04-21 19:26 41.72214 8.56685 5068 ft 257 kts 295°
2026-04-21 19:27 41.73085 8.54597 6407 ft 255 kts 299°
2026-04-21 19:27 41.73996 8.52544 7543 ft 259 kts 300°
2026-04-21 19:27 41.74922 8.50446 8637 ft 264 kts 300°
2026-04-21 19:27 41.75841 8.48340 9850 ft 263 kts 300°
2026-04-21 19:28 41.76763 8.46187 10773 ft 275 kts 299°
2026-04-21 19:28 41.77751 8.43832 11080 ft 306 kts 299°
2026-04-21 19:28 41.78843 8.41223 11356 ft 334 kts 299°
2026-04-21 19:28 41.80001 8.38458 12081 ft 344 kts 299°
2026-04-21 19:29 41.81181 8.35642 13014 ft 348 kts 299°
2026-04-21 19:29 41.82417 8.32821 13934 ft 352 kts 306°
2026-04-21 19:29 41.84110 8.30416 14741 ft 358 kts 316°
2026-04-21 19:29 41.86047 8.28319 15524 ft 365 kts 324°
2026-04-21 19:30 41.88210 8.26478 16337 ft 370 kts 326°
2026-04-21 19:30 41.90425 8.24664 17122 ft 375 kts 327°
2026-04-21 19:30 41.92676 8.22838 17893 ft 380 kts 327°
2026-04-21 19:30 41.94960 8.20984 18607 ft 385 kts 327°
2026-04-21 19:31 41.97236 8.19125 19335 ft 387 kts 326°
2026-04-21 19:31 41.99549 8.17228 20080 ft 390 kts 326°
2026-04-21 19:31 42.01095 8.15955 20550 ft 392 kts 326°
2026-04-21 19:31 42.04191 8.13397 21445 ft 396 kts 326°
2026-04-21 19:32 42.05784 8.12078 21902 ft 398 kts 326°
2026-04-21 19:32 42.08123 8.10137 22540 ft 401 kts 326°
2026-04-21 19:32 42.10508 8.08156 23159 ft 404 kts 326°
2026-04-21 19:32 42.12916 8.06154 23750 ft 408 kts 326°
2026-04-21 19:33 42.15342 8.04135 24264 ft 410 kts 326°
2026-04-21 19:33 42.17774 8.02109 24813 ft 412 kts 326°
2026-04-21 19:33 42.20219 8.00071 25333 ft 414 kts 326°
2026-04-21 19:33 42.22675 7.98021 25813 ft 416 kts 326°
2026-04-21 19:34 42.25118 7.95980 25926 ft 419 kts 326°
2026-04-21 19:34 42.27609 7.93897 25942 ft 422 kts 326°
2026-04-21 19:34 42.30115 7.91800 25951 ft 422 kts 326°
2026-04-21 19:34 42.32609 7.89712 25937 ft 421 kts 326°
2026-04-21 19:35 42.35103 7.87621 25680 ft 422 kts 326°
2026-04-21 19:35 42.40077 7.83445 24689 ft 422 kts 326°
2026-04-21 19:35 42.42560 7.81358 23884 ft 417 kts 326°
2026-04-21 19:36 42.45011 7.79297 23020 ft 412 kts 326°
2026-04-21 19:36 42.47437 7.77254 22158 ft 407 kts 326°
2026-04-21 19:36 42.49821 7.75245 21392 ft 401 kts 326°
2026-04-21 19:36 42.52186 7.73249 20627 ft 395 kts 326°
2026-04-21 19:37 42.54482 7.71310 19896 ft 390 kts 326°
2026-04-21 19:37 42.56774 7.69372 19169 ft 386 kts 326°
2026-04-21 19:37 42.59044 7.67451 18451 ft 382 kts 326°
2026-04-21 19:37 42.61271 7.65565 17641 ft 379 kts 326°
2026-04-21 19:38 42.63510 7.63666 16870 ft 375 kts 326°
2026-04-21 19:38 42.65720 7.61791 16135 ft 371 kts 326°
2026-04-21 19:38 42.67868 7.59968 15440 ft 366 kts 326°
2026-04-21 19:38 42.70023 7.58136 14743 ft 362 kts 326°
2026-04-21 19:39 42.72149 7.56328 14324 ft 355 kts 326°
2026-04-21 19:39 42.74231 7.54556 14189 ft 352 kts 326°
2026-04-21 19:39 42.76251 7.52836 13990 ft 340 kts 325°
2026-04-21 19:39 42.78237 7.51144 13531 ft 334 kts 325°
2026-04-21 19:40 42.80217 7.49453 12589 ft 339 kts 325°
2026-04-21 19:40 42.82243 7.47720 11578 ft 346 kts 326°
2026-04-21 19:40 42.84294 7.45965 10876 ft 345 kts 326°
2026-04-21 19:40 42.86244 7.44300 10659 ft 321 kts 326°
2026-04-21 19:41 42.88070 7.42743 10418 ft 298 kts 326°
2026-04-21 19:41 42.89775 7.41286 10262 ft 280 kts 326°
2026-04-21 19:41 42.91399 7.39894 10130 ft 270 kts 326°
2026-04-21 19:41 42.92959 7.38557 10018 ft 260 kts 326°
2026-04-21 19:42 42.94451 7.37275 9805 ft 255 kts 325°
2026-04-21 19:42 42.95953 7.35983 9488 ft 253 kts 326°
2026-04-21 19:42 42.97443 7.34702 9181 ft 252 kts 326°
2026-04-21 19:42 42.98916 7.33434 8872 ft 251 kts 326°
2026-04-21 19:43 43.00392 7.32165 8563 ft 249 kts 326°
2026-04-21 19:43 43.01860 7.30900 8262 ft 248 kts 326°
2026-04-21 19:43 43.03322 7.29641 7952 ft 248 kts 326°
2026-04-21 19:43 43.04777 7.28387 7649 ft 247 kts 326°
2026-04-21 19:44 43.06233 7.27131 7345 ft 247 kts 326°
2026-04-21 19:44 43.07684 7.25879 7047 ft 246 kts 326°
2026-04-21 19:44 43.09115 7.24645 6770 ft 245 kts 326°
2026-04-21 19:44 43.10564 7.23394 6432 ft 247 kts 326°
2026-04-21 19:45 43.12017 7.22138 6133 ft 246 kts 326°
2026-04-21 19:45 43.13467 7.20884 5830 ft 245 kts 326°
2026-04-21 19:45 43.14910 7.19637 5521 ft 245 kts 326°
2026-04-21 19:45 43.16331 7.18407 5220 ft 244 kts 326°
2026-04-21 19:46 43.17769 7.17162 4909 ft 244 kts 326°
2026-04-21 19:46 43.19215 7.15909 4593 ft 244 kts 326°
2026-04-21 19:46 43.20657 7.14658 4262 ft 245 kts 326°
2026-04-21 19:46 43.22096 7.13409 3952 ft 245 kts 326°
2026-04-21 19:47 43.23540 7.12156 3641 ft 245 kts 326°
2026-04-21 19:47 43.24963 7.10920 3335 ft 245 kts 327°
2026-04-21 19:47 43.26392 7.09678 3184 ft 239 kts 327°
2026-04-21 19:47 43.27781 7.08471 3053 ft 232 kts 327°
2026-04-21 19:48 43.29126 7.07301 2940 ft 225 kts 327°
2026-04-21 19:48 43.30411 7.06183 2843 ft 217 kts 327°
2026-04-21 19:48 43.31674 7.05084 2744 ft 210 kts 327°
2026-04-21 19:48 43.32879 7.04034 2652 ft 203 kts 328°
2026-04-21 19:49 43.34058 7.03006 2528 ft 200 kts 328°
2026-04-21 19:49 43.35239 7.01977 2360 ft 201 kts 328°
2026-04-21 19:49 43.36414 7.00952 2202 ft 194 kts 328°
2026-04-21 19:49 43.37517 6.99999 2044 ft 178 kts 332°
2026-04-21 19:50 43.38263 6.99642 2001 ft 165 kts 352°
2026-04-21 19:50 43.39738 6.99277 2000 ft 161 kts 349°
2026-04-21 19:50 43.40836 6.98970 2000 ft 161 kts 349°
2026-04-21 19:50 43.41941 6.98659 1998 ft 161 kts 349°
2026-04-21 19:51 43.43032 6.98352 1987 ft 159 kts 349°
2026-04-21 19:51 43.44113 6.98049 2000 ft 157 kts 350°
2026-04-21 19:51 43.45183 6.97751 1784 ft 158 kts 349°
2026-04-21 19:51 43.46231 6.97444 1574 ft 146 kts 350°
2026-04-21 19:52 43.47227 6.97144 1337 ft 149 kts 348°
2026-04-21 19:52 43.48216 6.96817 1195 ft 144 kts 348°
2026-04-21 19:52 43.49198 6.96490 1027 ft 148 kts 346°
2026-04-21 19:52 43.50225 6.96124 800 ft 156 kts 346°
2026-04-21 19:53 43.51257 6.95777 532 ft 148 kts 347°
2026-04-21 19:53 43.52232 6.95543 365 ft 141 kts 351°
2026-04-21 19:53 43.53223 6.95362 247 ft 142 kts 353°
2026-04-21 19:53 43.54187 6.95193 33 ft 135 kts 352°
2026-04-21 19:54 43.54865 6.95074 19 ft 52 kts 353°
2026-04-21 19:54 43.55162 6.95023 18 ft 42 kts 353°
2026-04-21 19:54 43.55369 6.94988 23 ft 15 kts 353°
2026-04-21 19:54 43.55434 6.95052 22 ft 13 kts 79°
2026-04-21 19:55 43.55397 6.95146 21 ft 12 kts 165°
2026-04-21 19:55 43.55311 6.95163 21 ft 13 kts 173°
2026-04-21 19:55 43.55227 6.95179 22 ft 6 kts 172°
2026-04-21 19:55 43.55181 6.95188 20 ft 7 kts 172°
2026-04-21 19:56 43.55128 6.95198 20 ft 8 kts 172°
2026-04-21 19:56 43.55086 6.95205 19 ft 6 kts 173°
2026-04-21 19:56 43.55041 6.95213 19 ft 7 kts 173°
2026-04-21 19:56 43.54990 6.95221 19 ft 4 kts 173°
2026-04-21 19:57 43.54985 6.95222 19 ft 1 kts 173°
2026-04-21 19:57 43.54972 6.95225 19 ft 3 kts 173°
2026-04-21 19:57 43.54949 6.95229 20 ft 4 kts 172°
2026-04-21 19:57 43.54920 6.95234 19 ft 4 kts 172°
2026-04-21 19:58 43.54889 6.95240 19 ft 5 kts 172°
2026-04-21 19:58 43.54852 6.95248 18 ft 6 kts 172°
2026-04-21 19:58 43.54808 6.95256 18 ft 7 kts 172°
2026-04-21 19:58 43.54756 6.95267 19 ft 8 kts 171°
2026-04-21 19:59 43.54697 6.95276 20 ft 9 kts 174°
2026-04-21 19:59 43.54663 6.95280 17 ft 1 kts 174°
2026-04-21 19:59 43.54651 6.95285 17 ft 3 kts 155°
2026-04-21 19:59 43.54643 6.95313 17 ft 4 kts 89°
2026-04-21 20:00 43.54642 6.95342 17 ft 0 kts 110°
2026-04-21 20:00 43.54636 6.95346 20 ft 1 kts 144°
2026-04-21 20:00 43.54625 6.95348 17 ft 2 kts 174°
2026-04-21 20:00 43.54613 6.95350 17 ft 0 kts 173°